User: anonymous   Login
Location: Caltech
(34.1382°N, 118.1253°W)
Time: 12:44:53
(UTC-07:00)
Language:

Gurwin Techsat 1B - Orbit

View from above orbital plane
View from above orbital plane
View from above satellite
View from above satellite

Ground track
Ground track

The orbit data is extracted from the following two-line orbital elements,

1 25397U 98043D   16211.38165466 -.00000020  00000-0  10013-4 0  9992
2 25397  98.5691 155.2338 0001008 157.4664 202.6559 14.23598895937861
Epoch (UTC): 29 July 2016 09:09:34
Eccentricity: 0.0001008
inclination: 98.5691°
perigee height: 812 km
apogee height: 814 km
right ascension of ascending node: 155.2338°
argument of perigee: 157.4664°
revolutions per day: 14.23598895
mean anomaly at epoch: 202.6559°
orbit number at epoch: 93786

The dashed part of the orbit path shows where the satellite is in the earth's shadow,  

DLR